AQI (58)

Current Conditions for Foresthill, CA. Clear skies, Dry   
Visibility: 10 miles
Foresthill Advisory text:

  Summary / Temperature 

Current Temperature
57.0°F
13.9°C
(24/hr Ago)
59.7°F
(Apparent temp)
48.7°F
Cool
Wind Chill Graphs
57.0°F 

57.0°F/ 13.9°C
 --- Virtual Temp: 57.8°F ---

 Temp Rate:

 24/hr Difference:

 Avg Running Temp:

 Todays High:

 Todays Low:

 Y-days High:

 Y-days Low:

 Todays WChill:

 Y-days WChill:

 Evapotranspiration:

-0.1°F/hr 

-2.7°F

57.0°F

59.5°F 12:00am

56.8°F 5:16am

74.6°F 2:59pm

59.2°F 7:34am

53.5°F 5:31am

56.7°F 6:42am

0.011 in

115' Above Ground

 Temperature:

 6'AGL VRS 115'AGL:

 Avg Running Temp:

 Humidity:

 Todays High:

 Todays Low:

 Y-days High:

 Y-days Low:

68.0°F 

+11°F

68.0°F

0% 

68.0°F 12:00am

68.0°F 12:00am

76.0°F 3:38pm

68.0°F 6:43pm

Temp & Humidity Graphs

  Wind 

Wind Speed

 Calm

Gusting to

 13.0 mph

Wind from E

86°  E

Calm

 Avg speed:

 Wind Run:

 Peak Gust:

  6.0 mph 

21.0 miles

  14.0 mph 5:27am

  Almanac  

Moon age: 28 days,1 hours,38 minutes,3%

Waning Crescent
2%
Illuminated
28 days in cycle

 Moonrise:

 Moonset:

 Sunrise:

 Sunset:

 Solar Noon:

6:01am

6:11pm

7:17am

6:20pm

12:48pm

2min 26s less daylight tomorrow 

  Solar Radiation 

(Current Solar)
  No Sun Light
(Todays High)
 None@12:00am

Rain

 Rain Today:

 Rain Rate (/hr):

 Rain last hour:

 Rain Yesterday:

 This Month:

 Season Total:

27 Days Since Last Rain Day

0.00 in

0.000 in

0.00 in

0.00 in

0.00 in

0.05 in

Updated Time

Updated: 10/18/17  5:54am

(Updated  sec ago)

Humidity & Barometer

 Humidity:

 Wetbulb:

 Dew Point:

 Barometer:

24% 

46.0°F 

20.5°F 

30.030 inHg 

 Baro Trend:  Steady 
Northern Calif
Preparedness
Fire 
Level 

    UV Index  

(Current UV)
0.0  None
(Todays High) @ 12:00am
0.0   None

National Weather Service Forecast

Overnight

Overnight: Mostly Clear
Mostly Clear
Wednesday

Wednesday: Sunny
Sunny
Wednesday
Night
Wednesday Night: Mostly Clear
Mostly Clear
Thursday

Thursday: Chance Light Rain
Chance Light Rain
Thursday
Night
Thursday Night: Rain
Rain
Friday

Friday: Chance Rain Showers then Mostly Sunny
Chance Rain Showers
Lo 55 °F Hi 76 °F Lo 52 °F Hi 63 °F Lo 45 °F Hi 57 °F

Foresthill Probe 2 Stats  
Foresthill Probe 2: is located on Thomas Street
at 3000 feet. The main Foresthill Weather site
is located on Melody ln at the 2860 foot elevation

Light Air
54.0°F
12.2°C
Temp Rate:
-0.2°F
Calm
Gusting to
3.0 mph
(Humidity)
25%
Wind from SE
132°  SE
Updated: 18/10/17 - 05:51:24
 Todays High: 57.1°F 00:00
 Todays Low: 54.0°F 05:44
 Rain Today: 0.00 in
 Season Total: 0.09 in

Foresthill Wx: Monthly,Yearly, Highs and Lows 

Foresthill  
This Weather Data is coming from the main Foresthill
Weather site located on Melody ln at the 2860 foot
elevation
Not Foresthill Probe 2
Weather Data
Month
  High
Month
  Low
Year
High
Year
Low
Temp 79.5°F
10/16/17
47.2°F
10/12/17
100.8°F
8/28/17
27.6°F
2/24/17
Humidity 61%
10/1/17
13%
10/9/17
100%
1/1/17
12%
8/30/17
Heat Index 78.0°F
10/7/17
47.3°F
10/12/17
97.6°F
6/19/17
32.5°F
2/24/17
Wind Chill 79.5°F
10/16/17
41.9°F
10/12/17
100.8°F
8/28/17
14.0°F
2/24/17
Wind Gust 53 mph
10/8/17
0 mph
10/1/17
53 mph
10/8/17
0 mph
1/1/17
Barometer 30.24 in
10/15/17
29.76 in
10/3/17
30.69 in
1/27/17
29.29 in
2/17/17
ET 0.21 in
10/9/17
0.00 in
10/1/17
0.28 in
7/17/17
0.00 in
1/1/17
Dew Point 44.8°F
10/1/17
13.1°F
10/9/17
69.7°F
6/19/17
13.1°F
10/9/17
Pacific Satellite US Radar Satellite Imagery Sacramento,CA.  (click to enlarge)
NWS Weather Forecast - Summary
Updated: Wed Oct 18, 2017 - 3:39am (PDT)
Current Interstate Highway Conditions for I-80 & US-50

[I 80: IN THE SAN FRANCISCO BAY AREA - SOLANO CO]
no traffic restrictions are reported for this area.

[I 80: IN THE NORTHERN CALIFORNIA AREA & SIERRA NEVADA]
no traffic restrictions are reported for this area.

[US 50: IN THE SACRAMENTO VALLEY & THE LAKE TAHOE BASIN]
  1-way controlled traffic at various locations from 0. 2 mi east of phillips /at sierra ski ranch rd/ to 2 mi east of phillips /at johnson pass/ (EL DORADO CO) from 7:00am to 5:00pm tuesday thru thursday thru 10/19/17 - due to maintenance
westbound traffic is reduced to 1 lane from 1 mi west of riverton /at bridal veil falls rd/ to 3 mi east of pollock pines (EL DORADO CO) - due to a slipout - motorists are subject to delays
NWS Weather Forecast: Overnight and Wednesday (Updated: Wed, 18-Oct-2017 2:11am PDT)
Overnight

Overnight: Mostly Clear
Mostly Clear

Lo 55 °F
NWS forecast: Mostly clear, with a low around 55. East northeast wind around 8 mph.
Wednesday

Wednesday: Sunny
Sunny

Hi 76 °F
NWS forecast: Sunny. High near 76, with temperatures falling to around 74 in the afternoon. South southeast wind 5 to 9 mph.
YR.NO 10 Day Weather forecast
Last update: 10/18/2017 @ 00:36
Next update: 10/18/2017 @ 13:00
Provided by: 22
      Temperature Precipitation Pressure Wind  
Today
10/18/2017
04:00 06:00 45°F   30.01 inHg Light breeze from east-northeast 6 mph
  06:00 12:00 43°F   30.01 inHg Light breeze from east-northeast 5 mph
  12:00 18:00 75°F   30.00 inHg Light breeze from west-southwest 4 mph
  18:00 00:00 63°F   29.94 inHg Light air from southwest 3 mph
    (Click to enlarge)
meteogram

    Forecast for next 9 days

      Temperature Precip Pressure Wind  
Thursday
10/19/2017
00:00 06:00 46°F   29.95 inHg Light breeze from east 7 mph
  06:00 12:00 48°F   29.91 inHg Light breeze from east 7 mph
  12:00 18:00 64°F   29.93 inHg Light breeze from south 7 mph
  18:00 00:00 55°F 0.11 in 29.84 inHg Light breeze from south-southwest 6 mph
      Temperature Precip Pressure Wind  
Friday
10/20/2017
00:00 06:00 48°F 0.73 in 29.88 inHg Gentle breeze from south-southeast 11 mph
  06:00 12:00 43°F 0.07 in 29.99 inHg Light breeze from southwest 7 mph
  12:00 18:00 46°F   30.11 inHg Light breeze from south-southwest 5 mph
  17:00 23:00 48°F   30.08 inHg Light air from west-southwest 2 mph
  23:00 05:00 39°F   30.15 inHg Light breeze from east-northeast 6 mph
      Temperature Precip Pressure Wind  
Saturday
10/21/2017
05:00 11:00 34°F   30.19 inHg Light breeze from northeast 6 mph
  11:00 17:00 55°F   30.22 inHg Light breeze from west-northwest 5 mph
  17:00 23:00 59°F   30.20 inHg Light breeze from west-northwest 5 mph
  23:00 05:00 43°F   30.29 inHg Light breeze from east-northeast 4 mph
      Temperature Precip Pressure Wind  
Sunday
10/22/2017
05:00 11:00 41°F   30.28 inHg Light breeze from east-northeast 5 mph
  11:00 17:00 68°F   30.30 inHg Light air from west 2 mph
  17:00 23:00 68°F   30.23 inHg Light breeze from west-northwest 4 mph
  23:00 05:00 55°F   30.22 inHg Gentle breeze from east-northeast 9 mph
      Temperature Precip Pressure Wind  
Monday
10/23/2017
05:00 11:00 54°F   30.20 inHg Light breeze from east-northeast 7 mph
  11:00 17:00 75°F   30.21 inHg Light air from east 2 mph
  17:00 23:00 73°F   30.14 inHg Light air from west-southwest 2 mph
  23:00 05:00 59°F   30.14 inHg Gentle breeze from east-northeast 10 mph
      Temperature Precip Pressure Wind  
Tuesday
10/24/2017
05:00 11:00 55°F   30.09 inHg Gentle breeze from east-northeast 9 mph
  11:00 17:00 81°F   30.09 inHg Light air from east 2 mph
  17:00 23:00 77°F   30.01 inHg Light air from west-southwest 2 mph
  23:00 05:00 52°F   30.01 inHg Light breeze from east-northeast 6 mph
      Temperature Precip Pressure Wind  
Wednesday
10/25/2017
05:00 11:00 50°F   29.97 inHg Light breeze from east-northeast 6 mph
  11:00 17:00 77°F   29.99 inHg Light air from south-southwest 2 mph
  17:00 23:00 73°F   29.93 inHg Light air from southwest 2 mph
  23:00 05:00 48°F   29.98 inHg Light air from east-northeast 3 mph
      Temperature Precip Pressure Wind  
Thursday
10/26/2017
05:00 11:00 46°F   29.96 inHg Light breeze from east-northeast 5 mph
  11:00 17:00 73°F   30.00 inHg Light air from southwest 1 mph
  17:00 23:00 68°F   29.97 inHg Light air from southwest 3 mph
  23:00 05:00 46°F   30.03 inHg Light air from east-northeast 3 mph
      Temperature Precip Pressure Wind  
Friday
10/27/2017
05:00 11:00 46°F   29.99 inHg Light air from east-northeast 2 mph
  11:00 17:00 70°F   30.01 inHg Light air from west-southwest 2 mph
How Close Are We To this Month's Temperature Record ?
Updated Wednesday, Oct 18, 2017- 5:50:01 AM

Current Temperature: 57.0°F

October's High: Temperature Record 90.8°F - Set on Mon, Oct 1, 2012 - 2:51:00 PM
We are currently 33.8°F Less than this Month's record High

October's Low: Temperature Record 38.8°F - Set on Tue, Oct 23, 2012 - 11:59:00 PM
We are currently 18.2°F More than this Month's record Low

Weather History For Wednesday, October 18, 2017


On this Day - In Weather History ...
Data courtesy of weatherforyou.com
powered by Cumulus v1.9.3 (1059)
Ambient Weather VWS v14.00
Top Contact Website Map Copyright © 2007 - 2017 Foresthillweather.com Never base important decisions on this or any weather information obtained from the Internet